This is the latest recevied weather packets stored in our database for station/object I8ZSE-10. If no packets are shown the sender has not sent any weather packets the latest 10 day(s).
| Time | Temp. | Humidity | Pressure | Rain* | Wind** | Luminosity | Snow |
|---|---|---|---|---|---|---|---|
| 1788343830 | 29.44° C | 37% | - | 0 mm | - | - | - |
| 1788343230 | 29.44° C | 37% | - | 0 mm | - | - | - |
| 1788342630 | 28.89° C | 39% | - | 0 mm | - | - | - |
| 1788342030 | 28.89° C | 40% | - | 0 mm | - | - | - |
| 1788341430 | 28.89° C | 40% | - | 0 mm | - | - | - |
| 1788340830 | 29.44° C | 40% | - | 0 mm | - | - | - |
| 1788340230 | 28.89° C | 41% | - | 0 mm | - | - | - |
| 1788339630 | 28.89° C | 43% | - | 0 mm | - | - | - |
| 1788339030 | 28.33° C | 43% | - | 0 mm | - | - | - |
| 1788338451 | 27.78° C | 45% | - | 0 mm | - | - | - |
| 1788337830 | 27.78° C | 47% | - | 0 mm | - | - | - |
| 1788337230 | 27.78° C | 50% | - | 0 mm | - | - | - |
| 1788336632 | 27.78° C | 54% | - | 0 mm | - | - | - |
| 1788336030 | 26.67° C | 58% | - | 0 mm | - | - | - |
| 1788335430 | 26.67° C | 60% | - | 0 mm | - | - | - |
| 1788334830 | 26.11° C | 62% | - | 0 mm | - | - | - |
| 1788334230 | 25.56° C | 63% | - | 0 mm | - | - | - |
| 1788333630 | 25° C | 68% | - | 0 mm | - | - | - |
| 1788333030 | 25° C | 68% | - | 0 mm | - | - | - |
| 1788332430 | 25° C | 67% | - | 0 mm | - | - | - |
| 1788331830 | 24.44° C | 69% | - | 0 mm | - | - | - |
| 1788331230 | 23.89° C | 69% | - | 0 mm | - | - | - |
| 1788330630 | 23.89° C | 69% | - | 0 mm | - | - | - |
| 1788330030 | 23.89° C | 68% | - | 0 mm | - | - | - |
| 1788329149 | 22.78° C | 72% | - | 0 mm | - | - | - |
* Rain latest hour (hover to see other rain measurements)
** Current wind speed in m/s (hover to see current wind gust speed)